Flag for U.S.A. Weather past 2 weeks in Montpelier, Vermont, U.S.A.

Now
82 °F

Sunny.


Feels Like: 83 °F
Forecast: 62 / 85 °F
Wind: No wind

Location: Knapp State Airport

Current Time: Jul 28, 2015 at 2:52:50 PM

Latest Report: Jul 28, 2015 at 1:51 PM


Visibility: 10 mi

Pressure: 30.01 "Hg

Humidity: 49%

Dew point: 61 °F

Location of MontpelierLocation

Historic Weather in Montpelier — Graph

°F

Montpelier temperature yesterday

Maximum temperature yesterday: 83 °F (at 3:51 PM)
Minimum temperature yesterday: 64 °F (at 3:02 AM)
Average temperature yesterday: 71 °F

Past Weeks' High & Low Weather Summary

 TemperatureHumidityPressure
High83 °F (Jul 19, 3:51 PM)100% (Jul 17, 3:51 AM)30.18 "Hg (Jul 17, 3:51 AM)
Low43 °F (Jul 16, 5:53 AM)41% (Jul 16, 3:51 PM)29.59 "Hg (Jul 21, 1:51 PM)
Average66 °F78%29.91 "Hg
* Reported Jul 13 1:51 PM — Jul 28 1:51 PM, Montpelier, Weather by CustomWeather, © 2015

Note: Actual official high and low records may vary slightly from our data, if they occured in-between our weather recording intervals... More about our weather records

Advertising

Montpelier weather history for previous 24 hours

 ConditionsComfort  
Time TempWeatherWind HumidityBarometerVisibility
1:51 PM
Tue, Jul 28
82 °FSunny.No wind49%30.01 "Hg10 mi
12:51 PM81 °FSunny.6 mph56%30.02 "Hg10 mi
11:51 AM77 °FSunny.5 mph64%30.03 "Hg10 mi
10:51 AM75 °FSunny.6 mph69%30.03 "Hg10 mi
9:51 AM71 °FSunny.No wind78%30.04 "Hg10 mi
8:51 AM65 °FFog.No wind97%30.05 "Hg4 mi
7:51 AM63 °FFog.No wind97%30.05 "Hg0 mi
6:51 AM62 °FFog.No wind100%30.05 "Hg0 mi
5:51 AM61 °FFog.No wind97%30.04 "Hg0 mi
4:51 AM63 °FClear.No wind93%30.02 "Hg9 mi
3:51 AM64 °FPassing clouds.5 mph94%30.01 "Hg10 mi
2:51 AM65 °FLight rain. Fog.6 mph94%30.04 "Hg6 mi
1:51 AM65 °FThundershowers. Fog.7 mph94%30.06 "Hg5 mi
12:51 AM65 °FPassing clouds.No wind87%30.03 "Hg10 mi
11:51 PM
Mon, Jul 27
65 °FClear.No wind85%30.03 "Hg10 mi
10:51 PM65 °FClear.No wind85%30.03 "Hg10 mi
9:51 PM67 °FPassing clouds.No wind81%30.03 "Hg10 mi
8:51 PM68 °FSunny.No wind82%30.02 "Hg10 mi
7:51 PM72 °FSunny.3 mph68%30.01 "Hg10 mi
6:51 PM75 °FPassing clouds.6 mph60%30.00 "Hg10 mi
5:51 PM79 °FScattered clouds.5 mph65%30.00 "Hg10 mi
4:51 PM81 °FPassing clouds.No wind53%30.00 "Hg10 mi
3:51 PM83 °FPassing clouds.No wind51%30.00 "Hg10 mi
2:51 PM82 °FPassing clouds.6 mph51%30.01 "Hg10 mi
Weather by CustomWeather, © 2015

See weather overviewHow to use our weather pages